Tracking 20942 objects as of 11-Jul-2020
HD Live streaming from Space Station
objects crossing your sky now

THOR ABLESTAR DEB

Track THOR ABLESTAR DEB now!
10-day predictions


NORAD ID: 5876
Int'l Code: 1961-015KF
Perigee: 911.4 km
Apogee: 2,050.8 km
Inclination: 65.7 °
Period: 115.4 minutes
Semi major axis: 7852 km
RCS: 0.0752 m2 (small)
Launch date: June 29, 1961
Source: United States (US)
Launch site: AIR FORCE EASTERN TEST RANGE (AFETR)

Note: This is SATELLITE DEBRIS
aabbcc
Your satellite tracking list
Your tracking list is empty




NASA's NSSDC Master Catalog

Two Line Element Set (TLE):
1  5876U 61015KF  20192.52175074 -.00000222 +00000-0 -42717-3 0  9996
2  5876 065.6736 329.5771 0725543 352.9506 006.1700 12.47730686894538
Source of the keplerian elements: AFSPC